Guam Agana, GU

5:10 AM ChST on October 19, 2019 (GMT +1000)
Guam International

Weather History for PGUM - August, 2019

Change the Weather History Date:

Saturday, August 3, 2019

  Actual Average Record
Temperature  
Mean Temperature 82 °F -  
Max Temperature 87 °F 85 °F 90 °F (2013)
Min Temperature 77 °F 75 °F 75 °F (1996)
Cooling Degree Days 17    
Growing Degree Days 32 (Base 50)    
Moisture  
Dew Point 76 °F    
Average Humidity 85    
Maximum Humidity 90    
Minimum Humidity 72    
Precipitation  
Precipitation 0.02 in - - ()
Sea Level Pressure  
Sea Level Pressure 29.72 in    
Wind  
Wind Speed 8 mph (SW)    
Max Wind Speed 17 mph    
Max Gust Speed 25 mph    
Visibility 8 miles    
Events Rain , Thunderstorm    
Averages and records for this station are not official NWS values.
T = Trace of Precipitation, MM = Missing Value Source: NWS Daily Summary

Daily Weather History Graph

Daily Weather History Graph

Search for Another Location

Airport or City:

Astronomy

Aug. 03, 2019 Rise Set
Actual Time 6:05 AM ChST 6:48 PM ChST
Civil Twilight 5:43 AM ChST 7:10 PM ChST
Nautical Twilight 5:17 AM ChST 7:36 PM ChST
Astronomical Twilight 4:50 AM ChST 8:03 PM ChST
Moon 7:58 AM ChST (8/3) 8:49 PM ChST (8/3)
Length of Visible Light 13h 27m
Length of Day
12h 42m
Waxing Crescent, 6% of the Moon is Illuminated
Aug 3
Waxing Crescent
Aug 8
First Quarter
Aug 15
Full
Aug 24
Last Quarter
Aug 30
New

Hourly Weather History & Observations

Time (ChST) Temp. Heat Index Dew Point Humidity Pressure Visibility Wind Dir Wind Speed Gust Speed Precip Events Conditions
12:11 AM 79.0 °F - 75.0 °F 88% 29.74 in 10.0 mi WNW 8.1 mph - N/A   Mostly Cloudy
12:20 AM 80.1 °F 85.4 °F 75.9 °F 87% 29.74 in 10.0 mi WNW 9.2 mph - N/A   Mostly Cloudy
12:42 AM 78.1 °F - 73.9 °F 87% 29.74 in 10.0 mi West 9.2 mph - N/A   Overcast
12:54 AM 79.0 °F - 75.0 °F 88% 29.72 in 10.0 mi West 8.1 mph - N/A   Overcast
1:08 AM 78.8 °F - 75.2 °F 89% 29.74 in 10.0 mi West 6.9 mph - N/A Thunderstorm Thunderstorm
1:25 AM 78.8 °F - 75.2 °F 89% 29.73 in 10.0 mi SW 6.9 mph - N/A Thunderstorm Thunderstorm
1:35 AM 78.1 °F - 73.9 °F 87% 29.73 in 10.0 mi SW 10.4 mph - N/A   Overcast
1:54 AM 78.1 °F - 73.9 °F 87% 29.70 in 10.0 mi WSW 9.2 mph - 0.00 in Rain Light Rain
2:13 AM 78.1 °F - 73.9 °F 87% 29.72 in 5.0 mi WSW 9.2 mph - 0.03 in Rain Rain
2:54 AM 77.0 °F - 73.9 °F 90% 29.69 in 10.0 mi West 11.5 mph - 0.07 in Rain Light Rain
3:17 AM 78.1 °F - 73.9 °F 87% 29.71 in 10.0 mi WSW 15.0 mph - 0.01 in Rain Light Rain
3:54 AM 78.1 °F - 73.9 °F 87% 29.68 in 10.0 mi WSW 11.5 mph - 0.01 in   Partly Cloudy
4:54 AM 78.1 °F - 73.9 °F 87% 29.68 in 10.0 mi SW 3.5 mph - 0.01 in   Scattered Clouds
5:54 AM 78.1 °F - 73.9 °F 87% 29.69 in 10.0 mi Calm Calm - N/A   Partly Cloudy
6:54 AM 79.0 °F - 75.0 °F 88% 29.70 in 10.0 mi Calm Calm - N/A   Clear
7:54 AM 82.0 °F 90.2 °F 77.0 °F 85% 29.70 in 10.0 mi West 3.5 mph - N/A   Clear
8:54 AM 82.9 °F 91.8 °F 77.0 °F 82% 29.71 in 10.0 mi West 4.6 mph - N/A   Clear
9:25 AM 82.9 °F 91.8 °F 77.0 °F 82% 29.74 in 10.0 mi Calm Calm - N/A   Mostly Cloudy
9:40 AM 84.0 °F 93.7 °F 77.0 °F 79% 29.74 in 10.0 mi WSW 8.1 mph - N/A   Mostly Cloudy
9:54 AM 84.0 °F 93.7 °F 77.0 °F 79% 29.73 in 10.0 mi SSW 5.8 mph - N/A   Scattered Clouds
10:34 AM 84.0 °F 93.7 °F 77.0 °F 79% 29.74 in 10.0 mi South 10.4 mph - N/A   Mostly Cloudy
10:45 AM 84.9 °F 96.6 °F 78.1 °F 80% 29.74 in 10.0 mi South 9.2 mph - N/A   Scattered Clouds
10:54 AM 84.9 °F 95.3 °F 77.0 °F 77% 29.72 in 10.0 mi South 9.2 mph - N/A   Scattered Clouds
11:54 AM 87.1 °F 98.8 °F 77.0 °F 72% 29.70 in 10.0 mi South 8.1 mph - 0.00 in   Scattered Clouds
12:45 PM 84.0 °F 93.7 °F 77.0 °F 79% 29.71 in 1.8 mi SSE 9.2 mph - 0.01 in Rain Light Rain
12:54 PM 82.9 °F 91.8 °F 77.0 °F 82% 29.69 in 4.0 mi South 10.4 mph - 0.09 in Rain Light Rain
12:57 PM 82.9 °F 91.8 °F 77.0 °F 82% 29.71 in 3.0 mi South 11.5 mph - 0.00 in Rain Light Rain
1:01 PM 81.0 °F 87.9 °F 77.0 °F 88% 29.72 in 1.5 mi SW 15.0 mph 23.0 mph 0.01 in Rain Rain
1:08 PM 79.0 °F - 75.0 °F 88% 29.72 in 0.8 mi SW 10.4 mph - 0.11 in Rain Rain
1:13 PM 80.1 °F 85.1 °F 75.0 °F 85% 29.71 in 2.5 mi SW 6.9 mph - 0.11 in Rain Rain
1:20 PM 81.0 °F 87.3 °F 75.9 °F 85% 29.71 in 6.0 mi South 4.6 mph - 0.12 in Rain Light Rain
1:35 PM 81.0 °F 87.3 °F 75.9 °F 85% 29.72 in 2.5 mi SSW 15.0 mph 23.0 mph 0.13 in Rain Light Rain
1:40 PM 79.0 °F - 73.9 °F 84% 29.72 in 0.8 mi South 17.3 mph 25.3 mph 0.19 in Rain Heavy Rain
1:54 PM 80.1 °F 85.4 °F 75.9 °F 87% 29.71 in 1.2 mi South 5.8 mph 16.1 mph 0.44 in Rain Heavy Rain
2:09 PM 80.1 °F 85.8 °F 77.0 °F 90% 29.72 in 0.5 mi Calm Calm - 0.13 in Rain Heavy Rain
2:16 PM 80.1 °F 85.8 °F 77.0 °F 90% 29.72 in 2.5 mi SSW 4.6 mph - 0.18 in Rain Heavy Rain
2:33 PM 81.0 °F 87.9 °F 77.0 °F 88% 29.72 in 10.0 mi South 5.8 mph - 0.21 in Rain Light Rain
2:49 PM 80.6 °F 87.1 °F 77.0 °F 89% 29.72 in 9.0 mi South 11.5 mph - 0.21 in   Overcast
2:54 PM 80.1 °F 85.4 °F 75.9 °F 87% 29.70 in 5.0 mi SSW 10.4 mph - 0.21 in Rain Light Rain
3:16 PM 80.1 °F 85.8 °F 77.0 °F 90% 29.72 in 10.0 mi SW 5.8 mph - 0.00 in   Mostly Cloudy
3:24 PM 81.0 °F 87.9 °F 77.0 °F 88% 29.72 in 10.0 mi WSW 6.9 mph - 0.00 in   Mostly Cloudy
3:52 PM 80.6 °F 86.2 °F 75.2 °F 84% 29.71 in 10.0 mi SSW 6.9 mph - 0.00 in Rain Light Rain
3:54 PM 80.1 °F 85.4 °F 75.9 °F 87% 29.69 in 10.0 mi SSW 6.9 mph - 0.00 in Rain Light Rain
4:01 PM 80.1 °F 85.4 °F 75.9 °F 87% 29.71 in 10.0 mi South 9.2 mph - 0.00 in Rain Light Rain
4:54 PM 78.1 °F - 73.9 °F 87% 29.68 in 9.0 mi South 4.6 mph - 0.01 in Rain Light Rain
5:54 PM 78.1 °F - 73.0 °F 84% 29.68 in 10.0 mi Calm Calm - 0.01 in   Partly Cloudy
6:54 PM 78.1 °F - 73.9 °F 87% 29.71 in 10.0 mi South 3.5 mph - N/A   Overcast
7:54 PM 79.0 °F - 73.9 °F 84% 29.71 in 10.0 mi Calm Calm - N/A   Clear
8:54 PM 79.0 °F - 73.9 °F 84% 29.73 in 10.0 mi Calm Calm - N/A   Mostly Cloudy
9:54 PM 79.0 °F - 75.0 °F 88% 29.74 in 10.0 mi South 3.5 mph - N/A   Scattered Clouds
10:54 PM 78.1 °F - 73.9 °F 87% 29.75 in 10.0 mi SW 8.1 mph 16.1 mph N/A   Scattered Clouds
11:54 PM 79.0 °F - 75.0 °F 88% 29.73 in 10.0 mi Calm Calm - N/A   Mostly Cloudy